Location: Ravensburg
(47.7866°N, 9.6124°E)
Time: 00:45:55
(UTC+01:00)

YUBILEINY - Visible Passes

Search period start: 15 March 2026 00:00
Search period end: 25 March 2026 00:00
Orbit: 1478 x 1509 km, 82.5° (Epoch: 14 March)

Date Brightness Start Highest point End Pass type
(mag) Time Alt. Az. Time Alt. Az. Time Alt. Az.
15 Mar ? 02:01:18 10° N 02:08:31 28° ENE 02:15:40 10° ESE visible
15 Mar ? 03:57:36 10° NNW 04:06:20 79° W 04:14:59 10° S visible
15 Mar ? 05:56:21 10° NW 06:01:37 18° WNW 06:06:53 10° WSW visible
15 Mar ? 19:03:06 10° W 19:09:13 20° NW 19:15:22 10° N visible
16 Mar ? 01:12:32 10° NNE 01:17:43 17° NE 01:22:52 10° E visible
16 Mar ? 03:07:54 10° N 03:16:35 65° ENE 03:25:12 10° SSE visible
16 Mar ? 05:05:26 10° NNW 05:12:47 32° W 05:20:07 10° SW visible
17 Mar ? 02:18:25 10° N 02:26:30 39° ENE 02:34:29 10° SE visible
17 Mar ? 04:15:13 10° NNW 04:23:37 55° W 04:31:58 10° SSW visible
17 Mar ? 19:23:26 10° WNW 19:27:38 14° NW 19:31:49 10° NNW visible
18 Mar ? 01:29:16 10° N 01:36:00 24° ENE 01:42:40 10° ESE visible
18 Mar ? 03:25:21 10° N 03:34:08 90° SW 03:42:05 13° S visible
18 Mar ? 05:23:38 10° NNW 05:29:41 22° WNW 05:35:44 10° WSW visible
19 Mar ? 00:40:49 10° NNE 00:45:04 14° NE 00:49:17 10° ENE visible
19 Mar ? 02:35:43 10° N 02:44:17 56° ENE 02:50:57 18° SSE visible
19 Mar ? 04:33:00 10° NNW 04:40:45 38° W 04:46:44 17° SW visible
20 Mar ? 01:46:20 10° N 01:54:04 34° ENE 02:00:30 14° ESE visible
20 Mar ? 03:42:55 10° NNW 03:51:29 64° W 03:56:19 29° SSW visible
20 Mar ? 05:42:36 10° NW 05:46:24 14° WNW 05:50:13 10° W visible
21 Mar ? 00:57:18 10° N 01:03:27 20° NE 01:09:33 10° E visible
21 Mar ? 02:53:07 10° N 03:01:53 79° E 03:06:10 35° SSE visible
21 Mar ? 04:51:02 10° NNW 04:57:43 26° WNW 05:02:01 17° WSW visible
22 Mar ? 00:09:24 10° NNE 00:12:22 12° NE 00:15:19 10° ENE visible
22 Mar ? 02:03:34 10° N 02:11:56 48° ENE 02:16:13 29° SE visible
22 Mar ? 04:00:37 10° NNW 04:08:41 45° W 04:12:03 32° SW visible
22 Mar ? 19:11:17 10° WNW 19:13:31 11° NW 19:15:45 10° NNW visible
23 Mar ? 01:14:15 10° N 01:21:37 29° ENE 01:26:23 18° ESE visible
23 Mar ? 03:10:38 10° NNW 03:19:19 75° W 03:22:13 47° SSW visible
23 Mar ? 05:09:34 10° NW 05:14:31 17° WNW 05:18:04 13° W visible
24 Mar ? 00:25:25 10° NNE 00:30:51 17° NE 00:36:15 10° E visible
24 Mar ? 02:20:54 10° N 02:29:37 68° ENE 02:32:29 46° SE visible
24 Mar ? 04:18:31 10° NNW 04:25:43 30° W 04:28:20 26° WSW visible
